Location: Dana
(41.8364°N, 106.7042°W)
Time: 19:42:15
(UTC+00:00)

Tiros 1 despin weight - Pass Details

Date: 12 May 2026
Orbit: 555 x 591 km, 48.2° (Epoch: 1 June)

Event Time Altitude Azimuth Distance (km) Brightness Sun altitude
Rises 18:37:22 0° 297° (WNW) 2,732 ? 65.8°
Reaches altitude 10° 18:39:37 10° 296° (WNW) 1,835 ? 65.9°
Maximum altitude 18:43:48 79° 210° (SSW) 568 ? 66.1°
Drops below altitude 10° 18:47:59 10° 124° (SE) 1,834 ? 66.2°
Sets 18:50:14 0° 123° (ESE) 2,730 ? 66.3°
